カタログに戻る

SL-16 DEB

運用中LEO
NORAD 22422·DEBRIS·🇷🇺 Russia

打ち上げ Dec 25, 1992 から Baikonur Cosmodrome

Loading…

次のパス (今後24時間)

TLE

最新Source: Space-Track

元期: Sep 14, 2026, 07:51 UTC

1 22422U 92093DP  26257.32729566  .00000186  00000-0  14935-3 0  9997
2 22422  71.1829 209.3120 0094209 296.8715 215.6443 14.00688541716872

AllMySatでSL-16 DEBをリアルタイム追跡

Download on the App Store